EW9733 Weather Reports


time (UTC)temp
C
wind
direction
speed
KPH
gust
KPH
rain 1hr
cm
rain 24hr
cm
rain mn
cm
humidity
%
barometer
mb
20240418174536 17 51 6.4 16.1 0.00 0.00 0.00 75 1015.3
20240418173038 17 15 4.8 14.5 0.00 0.00 0.00 76 1015.3
20240418171543 16 23 1.6 19.3 0.00 0.00 0.00 76 1015.3
20240418170031 17 84 1.6 14.5 0.00 0.00 0.00 80 1015.2
20240418164529 16 355 1.6 12.9 0.00 0.00 0.00 79 1015.0
20240418163034 16 350 4.8 12.9 0.00 0.00 0.00 78 1014.9
20240418161522 16 248 3.2 14.5 0.00 0.00 0.00 82 1014.7
20240418160019 15 57 1.6 16.1 0.00 0.00 0.00 85 1014.7
20240418154522 15 288 1.6 14.5 0.00 0.00 0.00 85 1014.7
20240418153017 15 9 3.2 16.1 0.00 0.00 0.00 85 1014.7
20240418151513 15 355 1.6 14.5 0.00 0.00 0.00 86 1014.7
20240418150012 15 130 0.0 6.4 0.00 0.00 0.00 89 1014.4
20240418144510 13 24 0.0 11.3 0.00 0.00 0.00 92 1014.5
20240418143008 13 326 4.8 12.9 0.00 0.00 0.00 93 1014.5
20240418141505 13 196 1.6 8.0 0.00 0.00 0.00 93 1014.3
20240418140005 12 91 1.6 8.0 0.00 0.00 0.00 94 1014.3
20240418134501 12 51 1.6 8.0 0.00 0.00 0.00 94 1014.1
20240418133103 12 45 3.2 12.9 0.00 0.00 0.00 94 1013.8
20240418131604 12 68 1.6 12.9 0.00 0.00 0.00 94 1013.8
20240418130056 12 250 1.6 8.0 0.00 0.00 0.00 94 1013.7
20240418124557 12 19 0.0 9.7 0.00 0.00 0.00 95 1013.7
20240418123052 12 46 0.0 12.9 0.00 0.00 0.00 94 1013.8
20240418121549 12 330 1.6 8.0 0.00 0.00 0.00 95 1013.6
20240418120047 12 311 0.0 4.8 0.00 0.00 0.00 95 1013.3
20240418114544 12 19 0.0 4.8 0.00 0.00 0.00 94 1013.0
20240418113049 12 173 0.0 4.8 0.00 0.00 0.00 94 1012.9
20240418111548 13 148 0.0 4.8 0.00 0.00 0.00 94 1012.7
20240418110116 13 271 0.0 4.8 0.00 0.00 0.00 94 1012.5
20240418104536 13 231 0.0 8.0 0.00 0.00 0.00 94 1012.1
20240418103032 13 333 0.0 4.8 0.00 0.00 0.00 94 1011.5
20240418101534 13 348 0.0 4.8 0.00 0.00 0.00 94 1011.3
20240418100028 13 76 0.0 6.4 0.00 0.00 0.00 94 1010.9
20240418094527 13 76 1.6 9.7 0.00 0.00 0.00 94 1010.7
20240418093038 13 32 0.0 4.8 0.00 0.00 0.00 94 1010.5
20240418091525 13 227 1.6 4.8 0.00 0.00 0.00 94 1010.7
20240418090027 13 46 0.0 9.7 0.00 0.00 0.00 94 1010.5
20240418084533 13 24 0.0 14.5 0.00 0.00 0.00 94 1010.2
20240418083038 13 55 1.6 12.9 0.00 0.00 0.00 93 1010.0
20240418081527 12 22 0.0 3.2 0.00 0.00 0.00 93 1009.9
20240418080023 12 46 0.0 3.2 0.00 0.00 0.00 93 1009.7
20240418074527 12 98 0.0 0.0 0.00 0.00 0.00 92 1009.8
20240418073030 12 99 0.0 0.0 0.00 0.00 0.00 92 1009.3
20240418071532 12 100 0.0 0.0 0.00 0.00 0.00 92 1009.2
20240418070036 12 100 0.0 0.0 0.00 0.00 0.00 91 1009.1
20240418064518 12 100 0.0 0.0 0.00 0.00 0.00 91 1009.2
20240418063018 12 100 0.0 0.0 0.00 0.00 0.00 91 1009.4
20240418061517 12 100 0.0 0.0 0.00 0.00 0.00 91 1009.4
20240418060012 12 100 0.0 0.0 0.00 0.00 0.00 91 1009.6
20240418054511 13 100 0.0 0.0 0.00 0.00 0.00 91 1009.8
20240418053008 13 100 0.0 0.0 0.00 0.00 0.00 91 1009.9
20240418051511 13 100 0.0 0.0 0.00 0.00 0.00 91 1009.9
20240418050007 13 100 0.0 0.0 0.00 0.00 0.00 91 1010.3
20240418044501 13 100 0.0 0.0 0.00 0.00 0.00 91 1010.5
20240418043100 14 101 0.0 4.8 0.00 0.00 0.00 91 1010.8
20240418043002 14 101 0.0 4.8 0.00 0.00 0.00 91 1010.8
20240418041558 15 101 0.0 4.8 0.00 0.00 0.00 92 1010.9
20240418040057 15 111 0.0 0.0 0.00 0.00 0.00 92 1011.0
20240418034556 15 111 0.0 0.0 0.00 0.00 0.00 92 1011.0
20240418033054 15 111 0.0 1.6 0.00 0.00 0.00 92 1010.8
20240418031602 15 111 0.0 1.6 0.00 0.00 0.00 92 1011.0
20240418030051 15 111 0.0 4.8 0.00 0.00 0.00 92 1011.1
20240418024602 15 111 0.0 1.6 0.00 0.00 0.00 91 1011.5
20240418023049 15 111 0.0 1.6 0.00 0.00 0.00 91 1011.9
20240418021557 15 111 0.0 0.0 0.00 0.00 0.00 91 1012.2
20240418020053 15 111 0.0 0.0 0.00 0.00 0.00 92 1012.5
20240418014551 15 111 0.0 0.0 0.00 0.00 0.00 92 1012.4
20240418013047 15 111 0.0 0.0 0.00 0.00 0.00 92 1012.3
20240418011546 14 111 0.0 0.0 0.00 0.00 0.00 92 1012.3
20240418010046 14 111 0.0 0.0 0.00 0.00 0.00 92 1011.9
20240418004547 14 111 0.0 6.4 0.00 0.00 0.00 92 1011.5
20240418003045 14 120 1.6 4.8 0.00 0.00 0.00 91 1011.4
20240418001542 14 116 1.6 6.4 0.00 0.00 0.00 91 1011.4
20240418000041 14 134 3.2 11.3 0.00 0.00 0.00 90 1011.5
20240417234540 14 108 1.6 6.4 0.00 0.00 0.00 90 1011.9
20240417233042 14 125 1.6 6.4 0.00 0.00 0.00 90 1012.0
20240417231538 14 134 3.2 12.9 0.00 0.00 0.00 89 1011.8
20240417230047 14 99 4.8 17.7 0.00 0.00 0.00 88 1012.2
20240417224547 14 99 3.2 17.7 0.00 0.00 0.00 87 1012.2
20240417223036 14 144 6.4 12.9 0.00 0.00 0.00 85 1011.9
20240417221533 15 101 3.2 12.9 0.00 0.00 0.00 84 1013.0
20240417220032 15 122 4.8 16.1 0.00 0.00 0.00 83 1013.2
20240417214531 15 112 3.2 11.3 0.00 0.00 0.00 81 1013.8
20240417213030 15 124 4.8 14.5 0.00 0.00 0.00 81 1013.4
20240417211530 15 148 3.2 17.7 0.00 0.00 0.00 81 1013.6
20240417210029 15 123 4.8 16.1 0.00 0.00 0.00 81 1013.7
20240417204531 16 133 4.8 19.3 0.00 0.00 0.00 80 1013.8
20240417203025 16 142 6.4 16.1 0.00 0.00 0.00 80 1014.3
20240417201527 16 118 6.4 12.9 0.00 0.00 0.00 79 1014.4
20240417200025 17 59 8.0 20.9 0.00 0.00 0.00 78 1014.1
20240417194529 17 134 8.0 17.7 0.00 0.00 0.00 77 1014.6
20240417193033 17 130 4.8 19.3 0.00 0.00 0.00 76 1014.9
20240417191519 18 131 8.0 17.7 0.00 0.00 0.00 74 1014.9
20240417190016 20 80 1.6 12.9 0.00 0.00 0.00 74 1015.2
20240417184514 20 121 3.2 11.3 0.00 0.00 0.00 73 1015.7
20240417183013 21 100 3.2 9.7 0.00 0.00 0.00 72 1015.8
20240417181512 21 129 1.6 6.4 0.00 0.00 0.00 70 1016.0
20240417180014 21 74 1.6 4.8 0.00 0.00 0.00 70 1016.0